GEOSCAN 2 (RS92S2)

Last updated on Fri Dec 19 2025 00:03:12 GMT+0000 (Coordinated Universal Time)

1 64890U 25155Q 25352.59616225 .00009935 00000+0 38562-3 0 9990 2 64890 97.4336 316.3841 0009971 84.3540 275.8835 15.26250677 53194
UTC large
Height (km)
Speed (km/s)
/
Latitude / Longitude
Inclination (degrees)
Orbital Period (minutes)
Azimuth
Elevation
Range (km)
Doppler Factor

Next 0 passes for location: London (51.5072 / 0.1276)

Sorry there are no passes over London.